TimePDT,TemperatureF,Dew PointF,Humidity,Sea Level PressureIn,VisibilityMPH,Wind Direction,Wind SpeedMPH,Gust SpeedMPH,PrecipitationIn,Events,Conditions,WindDirDegrees,DateUTC
12:58 AM,61.5,55.4,80,29.90,10.0,ESE,2.3,-,N/A,,Mostly Cloudy,110,2013-09-02 07:58:00
1:58 AM,59.9,55.6,86,29.91,10.0,SW,3.5,-,N/A,,Overcast,220,2013-09-02 08:58:00
2:58 AM,59.9,55.4,85,29.90,10.0,Calm,Calm,-,N/A,,Mostly Cloudy,0,2013-09-02 09:58:00
3:58 AM,57.6,55.0,91,29.91,10.0,SE,3.5,-,N/A,,Partly Cloudy,130,2013-09-02 10:58:00
4:58 AM,55.8,54.1,94,29.90,10.0,South,3.5,-,N/A,,Partly Cloudy,170,2013-09-02 11:58:00
5:58 AM,56.3,54.9,95,29.90,10.0,Calm,Calm,-,N/A,,Mostly Cloudy,0,2013-09-02 12:58:00
6:58 AM,57.6,55.9,94,29.91,10.0,Calm,Calm,-,N/A,,Overcast,0,2013-09-02 13:58:00
7:58 AM,60.8,57.2,88,29.91,10.0,SE,2.3,-,N/A,,Overcast,130,2013-09-02 14:58:00
8:58 AM,64.6,55.9,74,29.92,10.0,WSW,3.5,-,N/A,,Overcast,250,2013-09-02 15:58:00
9:58 AM,67.3,56.5,68,29.92,10.0,SW,3.5,-,N/A,,Mostly Cloudy,230,2013-09-02 16:58:00
10:58 AM,72.1,57.2,59,29.91,10.0,Variable,1.2,-,N/A,,Overcast,0,2013-09-02 17:58:00
11:58 AM,75.2,56.3,52,29.91,10.0,NW,4.6,-,N/A,,Mostly Cloudy,320,2013-09-02 18:58:00
12:58 PM,76.5,55.6,48,29.90,10.0,Variable,2.3,-,N/A,,Overcast,0,2013-09-02 19:58:00
1:58 PM,78.3,56.1,46,29.90,10.0,Variable,6.9,-,N/A,,Mostly Cloudy,0,2013-09-02 20:58:00
2:58 PM,80.4,57.0,45,29.89,10.0,Variable,5.8,-,N/A,,Mostly Cloudy,0,2013-09-02 21:58:00
3:58 PM,78.8,57.4,48,29.90,10.0,West,11.5,-,N/A,,Overcast,270,2013-09-02 22:58:00
4:58 PM,78.3,57.6,49,29.90,10.0,West,10.4,-,N/A,,Mostly Cloudy,270,2013-09-02 23:58:00
5:58 PM,76.5,58.3,53,29.91,10.0,West,5.8,-,N/A,,Clear,270,2013-09-03 00:58:00
6:58 PM,75.4,58.1,55,29.91,10.0,West,10.4,-,N/A,,Overcast,280,2013-09-03 01:58:00
7:58 PM,71.6,56.1,58,29.92,10.0,West,8.1,-,N/A,,Partly Cloudy,260,2013-09-03 02:58:00
8:58 PM,70.0,57.9,65,29.93,10.0,West,8.1,-,N/A,,Mostly Cloudy,270,2013-09-03 03:58:00
9:58 PM,68.0,57.7,70,29.95,10.0,West,5.8,-,N/A,,Partly Cloudy,260,2013-09-03 04:58:00
10:58 PM,66.2,57.4,73,29.96,10.0,West,3.5,-,N/A,,Scattered Clouds,280,2013-09-03 05:58:00
11:56 PM,64.4,57.2,77,29.96,10.0,Calm,Calm,-,N/A,Rain,Light Rain,0,2013-09-03 06:56:00
11:58 PM,64.4,55.4,73,29.97,10.0,East,1.2,-,N/A,Rain,Light Rain,80,2013-09-03 06:58:00